Location: Contre
(49.7477°N, 2.0963°E)
Time: 09:05:11
(UTC+00:00)

Cosmos 1943 Rocket - Pass Details

Date: 03 February 2023
Orbit: 811 x 844 km, 71.0° (Epoch: 23 March)

Event Time Altitude Azimuth Distance (km) Brightness Sun altitude
Rises 20:34:56 0° 332° (NNW) 3,415 5.9 -36.3°
Reaches altitude 10° 20:37:26 10° 336° (NNW) 2,476 5.0 -36.7°
Enters shadow 20:39:16 21° 341° (NNW) 1,815 4.2 -36.9°
